owner,sensor,date,latitude,longitude,vertical_datum,wind_speed,wind_to_direction,wind_speed_of_gust,qcFlag 
NDBC,ioos:station:NOAA.NDBC:CDRF1:1,2019-06-01T00:00:00Z,29.1360,-83.0290,10.0,5.1,260.0,7.2,'11111222,11111222,11111222' 
NDBC,ioos:station:NOAA.NDBC:CDRF1:1,2019-06-01T01:00:00Z,29.1360,-83.0290,10.0,3.1,270.0,4.6,'11111222,11111222,11111222' 
NDBC,ioos:station:NOAA.NDBC:CDRF1:1,2019-06-01T02:00:00Z,29.1360,-83.0290,10.0,4.1,260.0,6.2,'11111222,11111222,11111222' 
NDBC,ioos:station:NOAA.NDBC:CDRF1:1,2019-06-01T03:00:00Z,29.1360,-83.0290,10.0,4.1,280.0,6.2,'11111222,11111222,11111222' 
NDBC,ioos:station:NOAA.NDBC:CDRF1:1,2019-06-01T04:00:00Z,29.1360,-83.0290,10.0,3.1,260.0,4.1,'11111222,11111222,11111222' 
NDBC,ioos:station:NOAA.NDBC:CDRF1:1,2019-06-01T05:00:00Z,29.1360,-83.0290,10.0,3.6,270.0,6.2,'11111222,11111222,11111222' 
NDBC,ioos:station:NOAA.NDBC:CDRF1:1,2019-06-01T06:00:00Z,29.1360,-83.0290,10.0,3.6,280.0,5.1,'11111222,11111222,11111222' 
NDBC,ioos:station:NOAA.NDBC:CDRF1:1,2019-06-01T07:00:00Z,29.1360,-83.0290,10.0,4.1,280.0,5.1,'11111222,11111222,11111222' 
NDBC,ioos:station:NOAA.NDBC:CDRF1:1,2019-06-01T08:00:00Z,29.1360,-83.0290,10.0,4.1,300.0,5.1,'11111222,11111222,11111222' 
NDBC,ioos:station:NOAA.NDBC:CDRF1:1,2019-06-01T09:00:00Z,29.1360,-83.0290,10.0,4.6,300.0,5.7,'11111222,11111222,11111222' 
NDBC,ioos:station:NOAA.NDBC:CDRF1:1,2019-06-01T10:00:00Z,29.1360,-83.0290,10.0,3.6,300.0,5.7,'11111222,11111222,11111222' 
NDBC,ioos:station:NOAA.NDBC:CDRF1:1,2019-06-01T11:00:00Z,29.1360,-83.0290,10.0,3.1,310.0,4.6,'11111222,11111222,11111222' 
NDBC,ioos:station:NOAA.NDBC:CDRF1:1,2019-06-01T12:00:00Z,29.1360,-83.0290,10.0,2.6,310.0,3.6,'11111222,11111222,11111222' 
NDBC,ioos:station:NOAA.NDBC:CDRF1:1,2019-06-01T13:00:00Z,29.1360,-83.0290,10.0,2.1,320.0,3.1,'11111222,11111222,11111222' 
NDBC,ioos:station:NOAA.NDBC:CDRF1:1,2019-06-01T14:00:00Z,29.1360,-83.0290,10.0,3.6,330.0,5.7,'11111222,11111222,11111222' 
NDBC,ioos:station:NOAA.NDBC:CDRF1:1,2019-06-01T15:00:00Z,29.1360,-83.0290,10.0,3.6,300.0,4.6,'11111222,11111222,11111222' 
NDBC,ioos:station:NOAA.NDBC:CDRF1:1,2019-06-01T16:00:00Z,29.1360,-83.0290,10.0,3.6,250.0,4.6,'11111222,11111222,11111222' 
NDBC,ioos:station:NOAA.NDBC:CDRF1:1,2019-06-01T17:00:00Z,29.1360,-83.0290,10.0,4.1,250.0,5.7,'11111222,11111222,11111222' 
NDBC,ioos:station:NOAA.NDBC:CDRF1:1,2019-06-01T18:00:00Z,29.1360,-83.0290,10.0,2.6,230.0,3.6,'11111222,11111222,11111222' 
NDBC,ioos:station:NOAA.NDBC:CDRF1:1,2019-06-01T19:00:00Z,29.1360,-83.0290,10.0,4.6,250.0,5.7,'11111222,11111222,11111222' 
NDBC,ioos:station:NOAA.NDBC:CDRF1:1,2019-06-01T20:00:00Z,29.1360,-83.0290,10.0,4.6,270.0,5.7,'11111222,11111222,11111222' 
NDBC,ioos:station:NOAA.NDBC:CDRF1:1,2019-06-01T21:00:00Z,29.1360,-83.0290,10.0,2.6,260.0,4.1,'11111222,11111222,11111222' 
NDBC,ioos:station:NOAA.NDBC:CDRF1:1,2019-06-01T22:00:00Z,29.1360,-83.0290,10.0,5.1,250.0,7.2,'11111222,11111222,11111222' 
NDBC,ioos:station:NOAA.NDBC:CDRF1:1,2019-06-01T23:00:00Z,29.1360,-83.0290,10.0,5.1,270.0,7.7,'11111222,11111222,11111222' 
NDBC,ioos:station:NOAA.NDBC:CDRF1:1,2019-06-02T00:00:00Z,29.1360,-83.0290,10.0,5.1,290.0,5.7,'11111222,11111222,11111222' 
NDBC,ioos:station:NOAA.NDBC:CDRF1:1,2019-06-02T01:00:00Z,29.1360,-83.0290,10.0,4.1,280.0,6.2,'11111222,11111222,11111222' 
NDBC,ioos:station:NOAA.NDBC:CDRF1:1,2019-06-02T02:00:00Z,29.1360,-83.0290,10.0,2.6,270.0,3.6,'11111222,11111222,11111222' 
NDBC,ioos:station:NOAA.NDBC:CDRF1:1,2019-06-02T03:00:00Z,29.1360,-83.0290,10.0,3.6,260.0,5.1,'11111222,11111222,11111222' 
NDBC,ioos:station:NOAA.NDBC:CDRF1:1,2019-06-02T04:00:00Z,29.1360,-83.0290,10.0,3.1,270.0,4.1,'11111222,11111222,11111222' 
NDBC,ioos:station:NOAA.NDBC:CDRF1:1,2019-06-02T05:00:00Z,29.1360,-83.0290,10.0,2.6,280.0,3.1,'11111222,11111222,11111222' 
NDBC,ioos:station:NOAA.NDBC:CDRF1:1,2019-06-02T06:00:00Z,29.1360,-83.0290,10.0,4.1,280.0,5.1,'11111222,11111222,11111222' 
NDBC,ioos:station:NOAA.NDBC:CDRF1:1,2019-06-02T07:00:00Z,29.1360,-83.0290,10.0,2.1,270.0,3.6,'11111222,11111222,11111222' 
NDBC,ioos:station:NOAA.NDBC:CDRF1:1,2019-06-02T08:00:00Z,29.1360,-83.0290,10.0,2.1,280.0,3.1,'11111222,11111222,11111222' 
NDBC,ioos:station:NOAA.NDBC:CDRF1:1,2019-06-02T09:00:00Z,29.1360,-83.0290,10.0,2.6,270.0,3.6,'11111222,11111222,11111222' 
NDBC,ioos:station:NOAA.NDBC:CDRF1:1,2019-06-02T10:00:00Z,29.1360,-83.0290,10.0,2.6,270.0,3.1,'11111222,11111222,11111222' 
NDBC,ioos:station:NOAA.NDBC:CDRF1:1,2019-06-02T11:00:00Z,29.1360,-83.0290,10.0,2.1,270.0,3.6,'11111222,11111222,11111222' 
NDBC,ioos:station:NOAA.NDBC:CDRF1:1,2019-06-02T12:00:00Z,29.1360,-83.0290,10.0,2.6,270.0,3.1,'11111222,11111222,11111222' 
NDBC,ioos:station:NOAA.NDBC:CDRF1:1,2019-06-02T13:00:00Z,29.1360,-83.0290,10.0,2.6,260.0,4.1,'11111222,11111222,11111222' 
NDBC,ioos:station:NOAA.NDBC:CDRF1:1,2019-06-02T14:00:00Z,29.1360,-83.0290,10.0,2.6,260.0,3.6,'11111222,11111222,11111222' 
NDBC,ioos:station:NOAA.NDBC:CDRF1:1,2019-06-02T15:00:00Z,29.1360,-83.0290,10.0,3.6,340.0,5.1,'11111222,11111222,11111222' 
NDBC,ioos:station:NOAA.NDBC:CDRF1:1,2019-06-02T17:00:00Z,29.1360,-83.0290,10.0,2.1,310.0,3.1,'11111222,11111222,11111222' 
NDBC,ioos:station:NOAA.NDBC:CDRF1:1,2019-06-02T18:00:00Z,29.1360,-83.0290,10.0,2.1,270.0,3.6,'11111222,11111222,11111222' 
NDBC,ioos:station:NOAA.NDBC:CDRF1:1,2019-06-02T19:00:00Z,29.1360,-83.0290,10.0,3.6,250.0,5.1,'11111222,11111222,11111222' 
NDBC,ioos:station:NOAA.NDBC:CDRF1:1,2019-06-02T20:00:00Z,29.1360,-83.0290,10.0,3.6,250.0,4.6,'11111222,11111222,11111222' 
NDBC,ioos:station:NOAA.NDBC:CDRF1:1,2019-06-02T21:00:00Z,29.1360,-83.0290,10.0,3.6,250.0,5.7,'11111222,11111222,11111222' 
NDBC,ioos:station:NOAA.NDBC:CDRF1:1,2019-06-02T22:00:00Z,29.1360,-83.0290,10.0,4.1,260.0,6.2,'11111222,11111222,11111222' 
NDBC,ioos:station:NOAA.NDBC:CDRF1:1,2019-06-02T23:00:00Z,29.1360,-83.0290,10.0,5.7,260.0,7.2,'11111222,11111222,11111222' 
NDBC,ioos:station:NOAA.NDBC:CDRF1:1,2019-06-03T00:00:00Z,29.1360,-83.0290,10.0,4.1,270.0,5.1,'11111222,11111222,11111222' 
NDBC,ioos:station:NOAA.NDBC:CDRF1:1,2019-06-03T01:00:00Z,29.1360,-83.0290,10.0,4.1,260.0,5.1,'11111222,11111222,11111222' 
NDBC,ioos:station:NOAA.NDBC:CDRF1:1,2019-06-03T02:00:00Z,29.1360,-83.0290,10.0,4.1,260.0,5.7,'11111222,11111222,11111222' 
NDBC,ioos:station:NOAA.NDBC:CDRF1:1,2019-06-03T03:00:00Z,29.1360,-83.0290,10.0,3.1,270.0,4.6,'11111222,11111222,11111222' 
NDBC,ioos:station:NOAA.NDBC:CDRF1:1,2019-06-03T04:00:00Z,29.1360,-83.0290,10.0,3.6,260.0,4.6,'11111222,11111222,11111222' 
NDBC,ioos:station:NOAA.NDBC:CDRF1:1,2019-06-03T05:00:00Z,29.1360,-83.0290,10.0,2.6,280.0,4.1,'11111222,11111222,11111222' 
NDBC,ioos:station:NOAA.NDBC:CDRF1:1,2019-06-03T06:00:00Z,29.1360,-83.0290,10.0,3.1,270.0,4.1,'11111222,11111222,11111222' 
NDBC,ioos:station:NOAA.NDBC:CDRF1:1,2019-06-03T07:00:00Z,29.1360,-83.0290,10.0,2.6,280.0,3.6,'11111222,11111222,11111222' 
NDBC,ioos:station:NOAA.NDBC:CDRF1:1,2019-06-03T08:00:00Z,29.1360,-83.0290,10.0,2.1,280.0,2.6,'11111222,11111222,11111222' 
NDBC,ioos:station:NOAA.NDBC:CDRF1:1,2019-06-03T09:00:00Z,29.1360,-83.0290,10.0,2.6,290.0,3.6,'11111222,11111222,11111222' 
NDBC,ioos:station:NOAA.NDBC:CDRF1:1,2019-06-03T10:00:00Z,29.1360,-83.0290,10.0,3.1,300.0,4.1,'11111222,11111222,11111222' 
NDBC,ioos:station:NOAA.NDBC:CDRF1:1,2019-06-03T11:00:00Z,29.1360,-83.0290,10.0,2.1,310.0,3.6,'11111222,11111222,11111222' 
NDBC,ioos:station:NOAA.NDBC:CDRF1:1,2019-06-03T12:00:00Z,29.1360,-83.0290,10.0,2.1,290.0,2.6,'11111222,11111222,11111222' 
NDBC,ioos:station:NOAA.NDBC:CDRF1:1,2019-06-03T13:00:00Z,29.1360,-83.0290,10.0,2.6,310.0,3.1,'11111222,11111222,11111222' 
NDBC,ioos:station:NOAA.NDBC:CDRF1:1,2019-06-03T14:00:00Z,29.1360,-83.0290,10.0,4.1,340.0,6.7,'11111222,11111222,11111222' 
NDBC,ioos:station:NOAA.NDBC:CDRF1:1,2019-06-03T15:00:00Z,29.1360,-83.0290,10.0,2.1,80.0,2.1,'11111222,11111222,11111222' 
NDBC,ioos:station:NOAA.NDBC:CDRF1:1,2019-06-03T16:00:00Z,29.1360,-83.0290,10.0,1.0,190.0,1.0,'11111222,11111222,11111222' 
NDBC,ioos:station:NOAA.NDBC:CDRF1:1,2019-06-03T18:00:00Z,29.1360,-83.0290,10.0,2.6,260.0,3.6,'11111222,11111222,11111222' 
NDBC,ioos:station:NOAA.NDBC:CDRF1:1,2019-06-03T19:00:00Z,29.1360,-83.0290,10.0,4.1,280.0,5.7,'11111222,11111222,11111222' 
NDBC,ioos:station:NOAA.NDBC:CDRF1:1,2019-06-03T20:00:00Z,29.1360,-83.0290,10.0,3.1,250.0,5.1,'11111222,11111222,11111222' 
NDBC,ioos:station:NOAA.NDBC:CDRF1:1,2019-06-03T22:00:00Z,29.1360,-83.0290,10.0,4.1,250.0,5.1,'11111222,11111222,11111222' 
NDBC,ioos:station:NOAA.NDBC:CDRF1:1,2019-06-04T00:00:00Z,29.1360,-83.0290,10.0,3.1,270.0,4.1,'11111222,11111222,11111222' 
NDBC,ioos:station:NOAA.NDBC:CDRF1:1,2019-06-04T02:00:00Z,29.1360,-83.0290,10.0,3.1,260.0,4.6,'11111222,11111222,11111222' 
NDBC,ioos:station:NOAA.NDBC:CDRF1:1,2019-06-04T04:00:00Z,29.1360,-83.0290,10.0,2.6,280.0,4.1,'11111222,11111222,11111222' 
NDBC,ioos:station:NOAA.NDBC:CDRF1:1,2019-06-04T06:00:00Z,29.1360,-83.0290,10.0,2.6,270.0,3.1,'11111222,11111222,11111222' 
NDBC,ioos:station:NOAA.NDBC:CDRF1:1,2019-06-04T07:00:00Z,29.1360,-83.0290,10.0,2.1,300.0,2.6,'11111222,11111222,11111222' 
NDBC,ioos:station:NOAA.NDBC:CDRF1:1,2019-06-04T08:00:00Z,29.1360,-83.0290,10.0,1.0,310.0,2.1,'11111222,11111222,11111222' 
NDBC,ioos:station:NOAA.NDBC:CDRF1:1,2019-06-04T10:00:00Z,29.1360,-83.0290,10.0,2.1,300.0,2.1,'11111222,11111222,11111222' 
NDBC,ioos:station:NOAA.NDBC:CDRF1:1,2019-06-04T11:00:00Z,29.1360,-83.0290,10.0,1.5,300.0,2.1,'11111222,11111222,11111222' 
NDBC,ioos:station:NOAA.NDBC:CDRF1:1,2019-06-04T12:00:00Z,29.1360,-83.0290,10.0,1.0,310.0,1.5,'11111222,11111222,11111222' 
NDBC,ioos:station:NOAA.NDBC:CDRF1:1,2019-06-04T13:00:00Z,29.1360,-83.0290,10.0,1.5,320.0,2.6,'11111222,11111222,11111222' 
NDBC,ioos:station:NOAA.NDBC:CDRF1:1,2019-06-04T18:00:00Z,29.1360,-83.0290,10.0,2.6,360.0,4.6,'11111222,11144222,11111222' 
NDBC,ioos:station:NOAA.NDBC:CDRF1:1,2019-06-04T19:00:00Z,29.1360,-83.0290,10.0,4.6,360.0,5.7,'11111222,11144222,11111222' 
NDBC,ioos:station:NOAA.NDBC:CDRF1:1,2019-06-04T20:00:00Z,29.1360,-83.0290,10.0,4.1,360.0,6.7,'11111222,11144222,11111222' 
NDBC,ioos:station:NOAA.NDBC:CDRF1:1,2019-06-04T21:00:00Z,29.1360,-83.0290,10.0,4.1,360.0,5.1,'11111222,11144222,11111222' 
NDBC,ioos:station:NOAA.NDBC:CDRF1:1,2019-06-04T22:00:00Z,29.1360,-83.0290,10.0,3.6,360.0,5.7,'11111222,11144222,11111222' 
NDBC,ioos:station:NOAA.NDBC:CDRF1:1,2019-06-04T23:00:00Z,29.1360,-83.0290,10.0,2.6,360.0,4.6,'11111222,11144222,11111222' 
NDBC,ioos:station:NOAA.NDBC:CDRF1:1,2019-06-05T00:00:00Z,29.1360,-83.0290,10.0,1.5,360.0,1.5,'11111222,11144222,11111222' 
NDBC,ioos:station:NOAA.NDBC:CDRF1:1,2019-06-05T02:00:00Z,29.1360,-83.0290,10.0,3.1,360.0,3.1,'11111222,11144222,11111222' 
NDBC,ioos:station:NOAA.NDBC:CDRF1:1,2019-06-05T04:00:00Z,29.1360,-83.0290,10.0,6.2,360.0,6.7,'11111222,11144222,11111222' 
NDBC,ioos:station:NOAA.NDBC:CDRF1:1,2019-06-05T05:00:00Z,29.1360,-83.0290,10.0,6.7,360.0,7.2,'11111222,11144222,11111222' 
NDBC,ioos:station:NOAA.NDBC:CDRF1:1,2019-06-05T06:00:00Z,29.1360,-83.0290,10.0,5.1,360.0,6.2,'11111222,11144222,11111222' 
NDBC,ioos:station:NOAA.NDBC:CDRF1:1,2019-06-05T08:00:00Z,29.1360,-83.0290,10.0,6.7,110.0,7.7,'11111222,11111222,11111222' 
NDBC,ioos:station:NOAA.NDBC:CDRF1:1,2019-06-05T10:00:00Z,29.1360,-83.0290,10.0,5.7,110.0,7.2,'11111222,11111222,11111222' 
NDBC,ioos:station:NOAA.NDBC:CDRF1:1,2019-06-05T12:00:00Z,29.1360,-83.0290,10.0,6.2,110.0,7.7,'11111222,11111222,11111222' 
NDBC,ioos:station:NOAA.NDBC:CDRF1:1,2019-06-05T13:00:00Z,29.1360,-83.0290,10.0,5.7,10.0,5.7,'11111222,11111222,11111222' 
NDBC,ioos:station:NOAA.NDBC:CDRF1:1,2019-06-05T14:00:00Z,29.1360,-83.0290,10.0,5.1,360.0,5.7,'11111222,11144222,11111222' 
NDBC,ioos:station:NOAA.NDBC:CDRF1:1,2019-06-05T16:00:00Z,29.1360,-83.0290,10.0,4.6,360.0,5.1,'11111222,11144222,11111222' 
NDBC,ioos:station:NOAA.NDBC:CDRF1:1,2019-06-05T17:00:00Z,29.1360,-83.0290,10.0,3.6,360.0,4.6,'11111222,11144222,11111222' 
NDBC,ioos:station:NOAA.NDBC:CDRF1:1,2019-06-05T18:00:00Z,29.1360,-83.0290,10.0,2.6,360.0,4.1,'11111222,11144222,11111222' 
NDBC,ioos:station:NOAA.NDBC:CDRF1:1,2019-06-05T19:00:00Z,29.1360,-83.0290,10.0,3.1,360.0,4.1,'11111222,11144222,11111222' 
NDBC,ioos:station:NOAA.NDBC:CDRF1:1,2019-06-05T20:00:00Z,29.1360,-83.0290,10.0,2.6,360.0,4.1,'11111222,11144222,11111222' 
NDBC,ioos:station:NOAA.NDBC:CDRF1:1,2019-06-05T21:00:00Z,29.1360,-83.0290,10.0,2.1,360.0,2.6,'11111222,11144222,11111222' 
NDBC,ioos:station:NOAA.NDBC:CDRF1:1,2019-06-05T22:00:00Z,29.1360,-83.0290,10.0,1.5,360.0,2.6,'11111222,11144222,11111222' 
NDBC,ioos:station:NOAA.NDBC:CDRF1:1,2019-06-05T23:00:00Z,29.1360,-83.0290,10.0,3.1,360.0,4.1,'11111222,11144222,11111222' 
NDBC,ioos:station:NOAA.NDBC:CDRF1:1,2019-06-06T00:00:00Z,29.1360,-83.0290,10.0,3.1,360.0,3.6,'11111222,11144222,11111222' 
NDBC,ioos:station:NOAA.NDBC:CDRF1:1,2019-06-06T02:00:00Z,29.1360,-83.0290,10.0,2.1,360.0,2.6,'11111222,11144222,11111222' 
NDBC,ioos:station:NOAA.NDBC:CDRF1:1,2019-06-06T04:00:00Z,29.1360,-83.0290,10.0,1.5,-9999.0,-9999.0,'11111222,11111222,11111222' 
NDBC,ioos:station:NOAA.NDBC:CDRF1:1,2019-06-06T05:00:00Z,29.1360,-83.0290,10.0,2.1,-9999.0,-9999.0,'11111222,11111222,11111222' 
NDBC,ioos:station:NOAA.NDBC:CDRF1:1,2019-06-06T06:00:00Z,29.1360,-83.0290,10.0,1.5,-9999.0,-9999.0,'11111222,11111222,11111222' 
NDBC,ioos:station:NOAA.NDBC:CDRF1:1,2019-06-06T07:00:00Z,29.1360,-83.0290,10.0,4.1,-9999.0,-9999.0,'11111222,11111222,11111222' 
NDBC,ioos:station:NOAA.NDBC:CDRF1:1,2019-06-06T09:00:00Z,29.1360,-83.0290,10.0,1.5,-9999.0,-9999.0,'11111222,11111222,11111222' 
NDBC,ioos:station:NOAA.NDBC:CDRF1:1,2019-06-06T10:00:00Z,29.1360,-83.0290,10.0,2.1,-9999.0,-9999.0,'11111222,11111222,11111222' 
NDBC,ioos:station:NOAA.NDBC:CDRF1:1,2019-06-06T12:00:00Z,29.1360,-83.0290,10.0,3.1,-9999.0,-9999.0,'11111222,11111222,11111222' 
NDBC,ioos:station:NOAA.NDBC:CDRF1:1,2019-06-06T14:00:00Z,29.1360,-83.0290,10.0,3.6,-9999.0,-9999.0,'11111222,11111222,11111222' 
NDBC,ioos:station:NOAA.NDBC:CDRF1:1,2019-06-06T16:00:00Z,29.1360,-83.0290,10.0,2.1,-9999.0,-9999.0,'11111222,11111222,11111222' 
NDBC,ioos:station:NOAA.NDBC:CDRF1:1,2019-06-06T17:00:00Z,29.1360,-83.0290,10.0,2.1,-9999.0,-9999.0,'11111222,11111222,11111222' 
NDBC,ioos:station:NOAA.NDBC:CDRF1:1,2019-06-06T18:00:00Z,29.1360,-83.0290,10.0,2.1,-9999.0,-9999.0,'11111222,11111222,11111222' 
NDBC,ioos:station:NOAA.NDBC:CDRF1:1,2019-06-06T19:00:00Z,29.1360,-83.0290,10.0,2.1,-9999.0,-9999.0,'11111222,11111222,11111222' 
NDBC,ioos:station:NOAA.NDBC:CDRF1:1,2019-06-06T20:00:00Z,29.1360,-83.0290,10.0,2.6,-9999.0,-9999.0,'11111222,11111222,11111222' 
NDBC,ioos:station:NOAA.NDBC:CDRF1:1,2019-06-06T22:00:00Z,29.1360,-83.0290,10.0,2.1,-9999.0,-9999.0,'11111222,11111222,11111222' 
NDBC,ioos:station:NOAA.NDBC:CDRF1:1,2019-06-07T00:00:00Z,29.1360,-83.0290,10.0,1.5,-9999.0,-9999.0,'11111222,11111222,11111222' 
NDBC,ioos:station:NOAA.NDBC:CDRF1:1,2019-06-07T02:00:00Z,29.1360,-83.0290,10.0,2.6,-9999.0,-9999.0,'11111222,11111222,11111222' 
NDBC,ioos:station:NOAA.NDBC:CDRF1:1,2019-06-07T04:00:00Z,29.1360,-83.0290,10.0,3.1,-9999.0,-9999.0,'11111222,11111222,11111222' 
NDBC,ioos:station:NOAA.NDBC:CDRF1:1,2019-06-07T05:00:00Z,29.1360,-83.0290,10.0,3.6,-9999.0,-9999.0,'11111222,11111222,11111222' 
NDBC,ioos:station:NOAA.NDBC:CDRF1:1,2019-06-07T07:00:00Z,29.1360,-83.0290,10.0,4.1,-9999.0,-9999.0,'11111222,11111222,11111222' 
NDBC,ioos:station:NOAA.NDBC:CDRF1:1,2019-06-07T08:00:00Z,29.1360,-83.0290,10.0,3.1,-9999.0,-9999.0,'11111222,11111222,11111222' 
NDBC,ioos:station:NOAA.NDBC:CDRF1:1,2019-06-07T09:00:00Z,29.1360,-83.0290,10.0,4.1,-9999.0,-9999.0,'11111222,11111222,11111222' 
NDBC,ioos:station:NOAA.NDBC:CDRF1:1,2019-06-07T10:00:00Z,29.1360,-83.0290,10.0,6.2,-9999.0,-9999.0,'11111222,11111222,11111222' 
NDBC,ioos:station:NOAA.NDBC:CDRF1:1,2019-06-07T11:00:00Z,29.1360,-83.0290,10.0,5.1,-9999.0,-9999.0,'11111222,11111222,11111222' 
NDBC,ioos:station:NOAA.NDBC:CDRF1:1,2019-06-07T12:00:00Z,29.1360,-83.0290,10.0,4.6,-9999.0,-9999.0,'11111222,11111222,11111222' 
NDBC,ioos:station:NOAA.NDBC:CDRF1:1,2019-06-07T13:00:00Z,29.1360,-83.0290,10.0,4.6,-9999.0,-9999.0,'11111222,11111222,11111222' 
NDBC,ioos:station:NOAA.NDBC:CDRF1:1,2019-06-07T14:00:00Z,29.1360,-83.0290,10.0,5.7,-9999.0,-9999.0,'11111222,11111222,11111222' 
NDBC,ioos:station:NOAA.NDBC:CDRF1:1,2019-06-07T16:00:00Z,29.1360,-83.0290,10.0,5.1,-9999.0,-9999.0,'11111222,11111222,11111222' 
NDBC,ioos:station:NOAA.NDBC:CDRF1:1,2019-06-07T17:00:00Z,29.1360,-83.0290,10.0,5.1,-9999.0,-9999.0,'11111222,11111222,11111222' 
NDBC,ioos:station:NOAA.NDBC:CDRF1:1,2019-06-07T19:00:00Z,29.1360,-83.0290,10.0,5.1,-9999.0,-9999.0,'11111222,11111222,11111222' 
NDBC,ioos:station:NOAA.NDBC:CDRF1:1,2019-06-07T20:00:00Z,29.1360,-83.0290,10.0,4.1,-9999.0,-9999.0,'11111222,11111222,11111222' 
NDBC,ioos:station:NOAA.NDBC:CDRF1:1,2019-06-07T21:00:00Z,29.1360,-83.0290,10.0,2.1,-9999.0,-9999.0,'11111222,11111222,11111222' 
NDBC,ioos:station:NOAA.NDBC:CDRF1:1,2019-06-07T22:00:00Z,29.1360,-83.0290,10.0,3.1,-9999.0,-9999.0,'11111222,11111222,11111222' 
NDBC,ioos:station:NOAA.NDBC:CDRF1:1,2019-06-07T23:00:00Z,29.1360,-83.0290,10.0,3.6,-9999.0,-9999.0,'11111222,11111222,11111222' 
NDBC,ioos:station:NOAA.NDBC:CDRF1:1,2019-06-08T00:00:00Z,29.1360,-83.0290,10.0,5.1,-9999.0,-9999.0,'11111222,11111222,11111222' 
NDBC,ioos:station:NOAA.NDBC:CDRF1:1,2019-06-08T02:00:00Z,29.1360,-83.0290,10.0,3.6,-9999.0,-9999.0,'11111222,11111222,11111222' 
NDBC,ioos:station:NOAA.NDBC:CDRF1:1,2019-06-08T04:00:00Z,29.1360,-83.0290,10.0,3.1,-9999.0,-9999.0,'11111222,11111222,11111222' 
NDBC,ioos:station:NOAA.NDBC:CDRF1:1,2019-06-08T06:00:00Z,29.1360,-83.0290,10.0,5.7,-9999.0,-9999.0,'11111222,11111222,11111222' 
NDBC,ioos:station:NOAA.NDBC:CDRF1:1,2019-06-08T07:00:00Z,29.1360,-83.0290,10.0,5.7,-9999.0,-9999.0,'11111222,11111222,11111222' 
NDBC,ioos:station:NOAA.NDBC:CDRF1:1,2019-06-08T08:00:00Z,29.1360,-83.0290,10.0,5.7,-9999.0,-9999.0,'11111222,11111222,11111222' 
NDBC,ioos:station:NOAA.NDBC:CDRF1:1,2019-06-08T09:00:00Z,29.1360,-83.0290,10.0,5.7,-9999.0,-9999.0,'11111222,11111222,11111222' 
NDBC,ioos:station:NOAA.NDBC:CDRF1:1,2019-06-08T10:00:00Z,29.1360,-83.0290,10.0,7.7,-9999.0,-9999.0,'11111222,11111222,11111222' 
NDBC,ioos:station:NOAA.NDBC:CDRF1:1,2019-06-08T11:00:00Z,29.1360,-83.0290,10.0,7.2,-9999.0,-9999.0,'11111222,11111222,11111222' 
NDBC,ioos:station:NOAA.NDBC:CDRF1:1,2019-06-08T12:00:00Z,29.1360,-83.0290,10.0,5.7,-9999.0,-9999.0,'11111222,11111222,11111222' 
NDBC,ioos:station:NOAA.NDBC:CDRF1:1,2019-06-08T14:00:00Z,29.1360,-83.0290,10.0,9.3,-9999.0,-9999.0,'11111222,11111222,11111222' 
NDBC,ioos:station:NOAA.NDBC:CDRF1:1,2019-06-08T15:00:00Z,29.1360,-83.0290,10.0,8.2,-9999.0,-9999.0,'11111222,11111222,11111222' 
NDBC,ioos:station:NOAA.NDBC:CDRF1:1,2019-06-08T16:00:00Z,29.1360,-83.0290,10.0,8.8,-9999.0,-9999.0,'11111222,11111222,11111222' 
NDBC,ioos:station:NOAA.NDBC:CDRF1:1,2019-06-08T17:00:00Z,29.1360,-83.0290,10.0,5.7,-9999.0,-9999.0,'11111222,11111222,11111222' 
NDBC,ioos:station:NOAA.NDBC:CDRF1:1,2019-06-08T18:00:00Z,29.1360,-83.0290,10.0,5.7,-9999.0,-9999.0,'11111222,11111222,11111222' 
NDBC,ioos:station:NOAA.NDBC:CDRF1:1,2019-06-09T00:00:00Z,29.1360,-83.0290,10.0,5.1,-9999.0,-9999.0,'11111222,11111222,11111222' 
NDBC,ioos:station:NOAA.NDBC:CDRF1:1,2019-06-09T02:00:00Z,29.1360,-83.0290,10.0,5.7,-9999.0,-9999.0,'11111222,11111222,11111222' 
NDBC,ioos:station:NOAA.NDBC:CDRF1:1,2019-06-09T04:00:00Z,29.1360,-83.0290,10.0,8.8,-9999.0,-9999.0,'11111222,11111222,11111222' 
NDBC,ioos:station:NOAA.NDBC:CDRF1:1,2019-06-09T06:00:00Z,29.1360,-83.0290,10.0,10.3,-9999.0,-9999.0,'11111222,11111222,11111222' 
NDBC,ioos:station:NOAA.NDBC:CDRF1:1,2019-06-09T07:00:00Z,29.1360,-83.0290,10.0,7.7,-9999.0,-9999.0,'11111222,11111222,11111222' 
NDBC,ioos:station:NOAA.NDBC:CDRF1:1,2019-06-09T09:00:00Z,29.1360,-83.0290,10.0,8.2,-9999.0,-9999.0,'11111222,11111222,11111222' 
NDBC,ioos:station:NOAA.NDBC:CDRF1:1,2019-06-09T10:00:00Z,29.1360,-83.0290,10.0,7.7,-9999.0,-9999.0,'11111222,11111222,11111222' 
NDBC,ioos:station:NOAA.NDBC:CDRF1:1,2019-06-09T12:00:00Z,29.1360,-83.0290,10.0,5.1,-9999.0,-9999.0,'11111222,11111222,11111222' 
NDBC,ioos:station:NOAA.NDBC:CDRF1:1,2019-06-09T14:00:00Z,29.1360,-83.0290,10.0,8.8,-9999.0,-9999.0,'11111222,11111222,11111222' 
NDBC,ioos:station:NOAA.NDBC:CDRF1:1,2019-06-09T16:00:00Z,29.1360,-83.0290,10.0,8.8,-9999.0,-9999.0,'11111222,11111222,11111222' 
NDBC,ioos:station:NOAA.NDBC:CDRF1:1,2019-06-09T18:00:00Z,29.1360,-83.0290,10.0,4.1,-9999.0,-9999.0,'11111222,11111222,11111222' 
NDBC,ioos:station:NOAA.NDBC:CDRF1:1,2019-06-09T20:00:00Z,29.1360,-83.0290,10.0,2.6,-9999.0,-9999.0,'11111222,11111222,11111222' 
NDBC,ioos:station:NOAA.NDBC:CDRF1:1,2019-06-09T21:00:00Z,29.1360,-83.0290,10.0,6.2,-9999.0,-9999.0,'11111222,11111222,11111222' 
NDBC,ioos:station:NOAA.NDBC:CDRF1:1,2019-06-09T22:00:00Z,29.1360,-83.0290,10.0,5.7,-9999.0,-9999.0,'11111222,11111222,11111222' 
NDBC,ioos:station:NOAA.NDBC:CDRF1:1,2019-06-09T23:00:00Z,29.1360,-83.0290,10.0,6.2,-9999.0,-9999.0,'11111222,11111222,11111222' 
NDBC,ioos:station:NOAA.NDBC:CDRF1:1,2019-06-10T00:00:00Z,29.1360,-83.0290,10.0,7.7,-9999.0,-9999.0,'11111222,11111222,11111222' 
NDBC,ioos:station:NOAA.NDBC:CDRF1:1,2019-06-10T02:00:00Z,29.1360,-83.0290,10.0,8.2,-9999.0,-9999.0,'11111222,11111222,11111222' 
NDBC,ioos:station:NOAA.NDBC:CDRF1:1,2019-06-10T03:00:00Z,29.1360,-83.0290,10.0,9.3,-9999.0,-9999.0,'11111222,11111222,11111222' 
NDBC,ioos:station:NOAA.NDBC:CDRF1:1,2019-06-10T04:00:00Z,29.1360,-83.0290,10.0,9.3,-9999.0,-9999.0,'11111222,11111222,11111222' 
NDBC,ioos:station:NOAA.NDBC:CDRF1:1,2019-06-10T05:00:00Z,29.1360,-83.0290,10.0,8.2,-9999.0,-9999.0,'11111222,11111222,11111222' 
NDBC,ioos:station:NOAA.NDBC:CDRF1:1,2019-06-10T07:00:00Z,29.1360,-83.0290,10.0,9.3,-9999.0,-9999.0,'11111222,11111222,11111222' 
NDBC,ioos:station:NOAA.NDBC:CDRF1:1,2019-06-10T08:00:00Z,29.1360,-83.0290,10.0,7.7,-9999.0,-9999.0,'11111222,11111222,11111222' 
NDBC,ioos:station:NOAA.NDBC:CDRF1:1,2019-06-10T10:00:00Z,29.1360,-83.0290,10.0,6.7,-9999.0,-9999.0,'11111222,11111222,11111222' 
NDBC,ioos:station:NOAA.NDBC:CDRF1:1,2019-06-10T11:00:00Z,29.1360,-83.0290,10.0,8.2,-9999.0,-9999.0,'11111222,11111222,11111222' 
NDBC,ioos:station:NOAA.NDBC:CDRF1:1,2019-06-10T12:00:00Z,29.1360,-83.0290,10.0,4.6,-9999.0,-9999.0,'11111222,11111222,11111222' 
NDBC,ioos:station:NOAA.NDBC:CDRF1:1,2019-06-10T13:00:00Z,29.1360,-83.0290,10.0,7.2,-9999.0,-9999.0,'11111222,11111222,11111222' 
NDBC,ioos:station:NOAA.NDBC:CDRF1:1,2019-06-10T14:00:00Z,29.1360,-83.0290,10.0,5.1,-9999.0,-9999.0,'11111222,11111222,11111222' 
NDBC,ioos:station:NOAA.NDBC:CDRF1:1,2019-06-10T15:00:00Z,29.1360,-83.0290,10.0,5.7,-9999.0,-9999.0,'11111222,11111222,11111222' 
NDBC,ioos:station:NOAA.NDBC:CDRF1:1,2019-06-10T16:00:00Z,29.1360,-83.0290,10.0,5.7,-9999.0,-9999.0,'11111222,11111222,11111222' 
NDBC,ioos:station:NOAA.NDBC:CDRF1:1,2019-06-10T17:00:00Z,29.1360,-83.0290,10.0,5.1,-9999.0,-9999.0,'11111222,11111222,11111222' 
NDBC,ioos:station:NOAA.NDBC:CDRF1:1,2019-06-10T18:00:00Z,29.1360,-83.0290,10.0,4.1,-9999.0,-9999.0,'11111222,11111222,11111222' 
NDBC,ioos:station:NOAA.NDBC:CDRF1:1,2019-06-10T19:00:00Z,29.1360,-83.0290,10.0,5.1,-9999.0,-9999.0,'11111222,11111222,11111222' 
NDBC,ioos:station:NOAA.NDBC:CDRF1:1,2019-06-10T20:00:00Z,29.1360,-83.0290,10.0,7.2,-9999.0,-9999.0,'11111222,11111222,11111222' 
NDBC,ioos:station:NOAA.NDBC:CDRF1:1,2019-06-10T21:00:00Z,29.1360,-83.0290,10.0,4.1,-9999.0,-9999.0,'11111222,11111222,11111222' 
NDBC,ioos:station:NOAA.NDBC:CDRF1:1,2019-06-10T22:00:00Z,29.1360,-83.0290,10.0,5.1,-9999.0,-9999.0,'11111222,11111222,11111222' 
NDBC,ioos:station:NOAA.NDBC:CDRF1:1,2019-06-10T23:00:00Z,29.1360,-83.0290,10.0,4.6,-9999.0,-9999.0,'11111222,11111222,11111222' 
NDBC,ioos:station:NOAA.NDBC:CDRF1:1,2019-06-11T00:00:00Z,29.1360,-83.0290,10.0,5.1,-9999.0,-9999.0,'11111222,11111222,11111222' 
NDBC,ioos:station:NOAA.NDBC:CDRF1:1,2019-06-11T01:00:00Z,29.1360,-83.0290,10.0,4.1,-9999.0,-9999.0,'11111222,11111222,11111222' 